Live-Position
3D-Globus wird geladen...
Über Starlink 2606
Group: 3 satellites
Beschreibung wird geladen...
Nächste Überflüge
Passes for default location (London). Set your location on the main map for personalized predictions.
Höhenverlauf
Loading altitude history...
No altitude history available
Zweizeiliger Elementsatz
1 48386U 21038AK 26106.20872606 .00005122 00000-0 17676-3 0 9999
2 48386 53.1585 171.2159 0001313 94.9810 265.1342 15.31691605272992
Epoch: 16. Apr. 2026 •
Age: 11 hours
Aktueller Status
Höhe 472.1 km
Geschwindigkeit 7.63 km/s
Subsatellitenpunkt 31.21°N,
108.88°E
Startdatum 4. Mai 2021
Alter 4.9 years
Typ internet
Startgruppe
Falcon 9 •
Launch 25 •
46 satellites
Starlink 2613
48353
Starlink 2674 48354
Starlink 2635 48355
Starlink 2637 48356
Starlink 2636 48357
Starlink 2624 48358
Starlink 2628 48359
Starlink 2622 48360
Starlink 2591 48361
Starlink 2578 48362
Starlink 2611 48364
Starlink 2608 48365
Starlink 2643 48367
Starlink 2623 48368
Starlink 2621 48370
Starlink 2589 48371
Starlink 2609 48373
Starlink 2604 48374
Starlink 2603 48375
Starlink 2610 48376
...and 25 more
Technische Details
Klassifizierung Payload
Masse 260.00 kg
Trockenmasse 248.00 kg
Gesamtmasse 260.00 kg
Länge 0.20 m
Durchmesser 2.80 m
Spannweite 9.00 m
Form Box + pan
Hersteller SPXS
Bus-Typ Starlink
Phasenstatus In Orbit
Besitzer/Staat SPXS/US
Most Searched
Loading...